| time (UTC) | temp C | wind direction | speed KPH | gust KPH | rain 1hr cm | rain 24hr cm | rain mn cm | humidity % | barometer mb |
| 20260502194838 | 12 | 224 | 9.7 | 11.3 | 0.00 | 0.00 | 0.00 | 42 | 1014.9 |
| 20260502194249 | 11 | 141 | 4.8 | 6.4 | 0.00 | 0.00 | 0.00 | 43 | 1015.2 |
| 20260502193634 | 11 | 339 | 9.7 | 11.3 | 0.00 | 0.00 | 0.00 | 42 | 1014.9 |
| 20260502193038 | 10 | 250 | 8.0 | 12.9 | 0.00 | 0.00 | 0.00 | 43 | 1015.2 |
| 20260502192426 | 10 | 356 | 8.0 | 9.7 | 0.00 | 0.00 | 0.00 | 45 | 1015.2 |
| 20260502191852 | 11 | 225 | 1.6 | 1.6 | 0.00 | 0.00 | 0.00 | 40 | 1015.2 |
| 20260502190615 | 10 | 338 | 4.8 | 6.4 | 0.00 | 0.00 | 0.00 | 43 | 1015.2 |
| 20260502190018 | 10 | 12 | 3.2 | 4.8 | 0.00 | 0.00 | 0.00 | 44 | 1014.9 |
| 20260502185437 | 11 | 8 | 9.7 | 12.9 | 0.00 | 0.00 | 0.00 | 42 | 1015.2 |
| 20260502184255 | 10 | 29 | 3.2 | 3.2 | 0.00 | 0.00 | 0.00 | 41 | 1015.5 |
| 20260502183654 | 10 | 271 | 6.4 | 11.3 | 0.00 | 0.00 | 0.00 | 45 | 1015.2 |
| 20260502183016 | 10 | 252 | 9.7 | 14.5 | 0.00 | 0.00 | 0.00 | 43 | 1015.5 |
| 20260502182440 | 10 | 289 | 4.8 | 6.4 | 0.00 | 0.00 | 0.00 | 43 | 1015.5 |
| 20260502181834 | 10 | 222 | 3.2 | 4.8 | 0.00 | 0.00 | 0.00 | 42 | 1015.2 |
| 20260502181254 | 10 | 21 | 8.0 | 9.7 | 0.00 | 0.00 | 0.00 | 41 | 1015.5 |
| 20260502180621 | 11 | 14 | 9.7 | 14.5 | 0.00 | 0.00 | 0.00 | 42 | 1015.5 |
| 20260502164244 | 10 | 37 | 6.4 | 11.3 | 0.00 | 0.00 | 0.00 | 48 | 1015.5 |
| 20260502163631 | 10 | 133 | 3.2 | 3.2 | 0.00 | 0.00 | 0.00 | 44 | 1015.5 |
| 20260502163054 | 10 | 23 | 8.0 | 11.3 | 0.00 | 0.00 | 0.00 | 46 | 1015.5 |
| 20260502162442 | 10 | 353 | 3.2 | 4.8 | 0.00 | 0.00 | 0.00 | 48 | 1015.5 |
| 20260502161816 | 10 | 133 | 1.6 | 3.2 | 0.00 | 0.00 | 0.00 | 47 | 1015.9 |
| 20260502161221 | 10 | 248 | 3.2 | 6.4 | 0.00 | 0.00 | 0.00 | 48 | 1015.9 |
| 20260502160623 | 10 | 54 | 3.2 | 6.4 | 0.00 | 0.00 | 0.00 | 46 | 1015.9 |
| 20260502151833 | 8 | 41 | 9.7 | 11.3 | 0.00 | 0.00 | 0.00 | 47 | 1015.5 |
| 20260502151241 | 8 | 33 | 6.4 | 9.7 | 0.00 | 0.00 | 0.00 | 47 | 1015.5 |
| 20260502150650 | 8 | 221 | 3.2 | 4.8 | 0.00 | 0.00 | 0.00 | 48 | 1015.9 |
| 20260502130631 | 2 | 122 | 0.0 | 1.6 | 0.00 | 0.00 | 0.00 | 99 | 1015.5 |
| 20260502123636 | 1 | 111 | 0.0 | 0.0 | 0.00 | 0.00 | 0.00 | 99 | 1015.9 |
| 20260502122440 | 0 | 137 | 0.0 | 0.0 | 0.00 | 0.00 | 0.00 | 99 | 1015.9 |
| 20260502121222 | 0 | 108 | 0.0 | 0.0 | 0.00 | 0.00 | 0.00 | 99 | 1015.5 |
| 20260502120644 | 0 | 103 | 0.0 | 0.0 | 0.00 | 0.00 | 0.00 | 99 | 1015.5 |
| 20260502115451 | -1 | 103 | 0.0 | 0.0 | 0.00 | 0.00 | 0.00 | 99 | 1015.5 |
| 20260502114813 | -1 | 103 | 0.0 | 0.0 | 0.00 | 0.00 | 0.00 | 99 | 1015.5 |
| 20260502114232 | -1 | 103 | 0.0 | 0.0 | 0.00 | 0.00 | 0.00 | 99 | 1015.5 |
| 20260502113611 | -1 | 101 | 0.0 | 0.0 | 0.00 | 0.00 | 0.00 | 99 | 1015.5 |
| 20260502113039 | -1 | 103 | 0.0 | 0.0 | 0.00 | 0.00 | 0.00 | 99 | 1015.5 |
| 20260502112437 | -1 | 95 | 0.0 | 0.0 | 0.00 | 0.00 | 0.00 | 99 | 1015.5 |
| 20260502111828 | -1 | 96 | 0.0 | 0.0 | 0.00 | 0.00 | 0.00 | 99 | 1015.5 |
| 20260502111226 | -1 | 114 | 0.0 | 0.0 | 0.00 | 0.00 | 0.00 | 99 | 1015.5 |
| 20260502110017 | -1 | 98 | 0.0 | 0.0 | 0.00 | 0.00 | 0.00 | 99 | 1015.2 |
| 20260502105418 | -1 | 85 | 0.0 | 0.0 | 0.00 | 0.00 | 0.00 | 99 | 1015.2 |
| 20260502104829 | -2 | 105 | 0.0 | 0.0 | 0.00 | 0.00 | 0.00 | 99 | 1015.2 |
| 20260502104217 | -1 | 105 | 0.0 | 0.0 | 0.00 | 0.00 | 0.00 | 99 | 1015.5 |
| 20260502103635 | -1 | 103 | 0.0 | 0.0 | 0.00 | 0.00 | 0.00 | 99 | 1015.5 |
| 20260502103043 | -1 | 91 | 0.0 | 0.0 | 0.00 | 0.00 | 0.00 | 99 | 1015.2 |
| 20260502102419 | -1 | 86 | 0.0 | 0.0 | 0.00 | 0.00 | 0.00 | 99 | 1015.5 |
| 20260502101847 | -1 | 95 | 0.0 | 0.0 | 0.00 | 0.00 | 0.00 | 99 | 1015.5 |
| 20260502100631 | -1 | 89 | 0.0 | 0.0 | 0.00 | 0.00 | 0.00 | 99 | 1015.2 |
| 20260502091252 | -1 | 90 | 0.0 | 0.0 | 0.00 | 0.00 | 0.00 | 99 | 1015.5 |
| 20260502090624 | -1 | 88 | 0.0 | 0.0 | 0.00 | 0.00 | 0.00 | 99 | 1015.5 |
| 20260502071224 | 0 | 91 | 0.0 | 0.0 | 0.00 | 0.00 | 0.00 | 99 | 1015.2 |
| 20260502070652 | 0 | 116 | 0.0 | 0.0 | 0.00 | 0.00 | 0.00 | 99 | 1015.2 |
| 20260502070035 | 0 | 122 | 0.0 | 0.0 | 0.00 | 0.00 | 0.00 | 99 | 1015.2 |
| 20260502063651 | 0 | 94 | 0.0 | 0.0 | 0.00 | 0.00 | 0.00 | 99 | 1015.5 |
| 20260502063042 | 0 | 78 | 0.0 | 0.0 | 0.00 | 0.00 | 0.00 | 99 | 1015.5 |
| 20260502061814 | 0 | 110 | 0.0 | 0.0 | 0.00 | 0.00 | 0.00 | 99 | 1015.9 |
| 20260502061249 | 0 | 120 | 0.0 | 0.0 | 0.00 | 0.00 | 0.00 | 99 | 1015.9 |
| 20260502060622 | 0 | 92 | 0.0 | 0.0 | 0.00 | 0.00 | 0.00 | 99 | 1015.9 |
| 20260502060047 | 0 | 95 | 0.0 | 0.0 | 0.00 | 0.00 | 0.00 | 99 | 1015.9 |
| 20260502055448 | 0 | 93 | 0.0 | 0.0 | 0.00 | 0.00 | 0.00 | 99 | 1015.9 |
| 20260502054820 | 0 | 102 | 0.0 | 0.0 | 0.00 | 0.00 | 0.00 | 99 | 1015.9 |
| 20260502054251 | 1 | 102 | 0.0 | 0.0 | 0.00 | 0.00 | 0.00 | 99 | 1015.9 |
| 20260502053021 | 1 | 83 | 0.0 | 0.0 | 0.00 | 0.00 | 0.00 | 99 | 1015.9 |
| 20260502052415 | 1 | 112 | 0.0 | 0.0 | 0.00 | 0.00 | 0.00 | 99 | 1016.2 |
| 20260502051826 | 1 | 124 | 0.0 | 0.0 | 0.00 | 0.00 | 0.00 | 99 | 1015.9 |
| 20260502051220 | 1 | 112 | 0.0 | 0.0 | 0.00 | 0.00 | 0.00 | 99 | 1015.9 |
| 20260502050628 | 1 | 121 | 0.0 | 0.0 | 0.00 | 0.00 | 0.00 | 99 | 1015.9 |
| 20260502050039 | 1 | 106 | 0.0 | 0.0 | 0.00 | 0.00 | 0.00 | 99 | 1016.2 |
| 20260502045433 | 1 | 95 | 0.0 | 0.0 | 0.00 | 0.00 | 0.00 | 99 | 1015.9 |
| 20260502044838 | 1 | 92 | 0.0 | 0.0 | 0.00 | 0.00 | 0.00 | 99 | 1016.2 |
| 20260502043629 | 2 | 105 | 0.0 | 0.0 | 0.00 | 0.00 | 0.00 | 99 | 1016.2 |
| 20260502043043 | 2 | 95 | 0.0 | 0.0 | 0.00 | 0.00 | 0.00 | 99 | 1016.2 |
| 20260502042435 | 2 | 85 | 0.0 | 0.0 | 0.00 | 0.00 | 0.00 | 99 | 1016.2 |
| 20260502041810 | 2 | 96 | 0.0 | 0.0 | 0.00 | 0.00 | 0.00 | 99 | 1016.2 |
| 20260502041217 | 2 | 131 | 0.0 | 0.0 | 0.00 | 0.00 | 0.00 | 99 | 1016.2 |
| 20260502040649 | 2 | 118 | 0.0 | 0.0 | 0.00 | 0.00 | 0.00 | 99 | 1016.2 |
| 20260502040019 | 2 | 134 | 0.0 | 0.0 | 0.00 | 0.00 | 0.10 | 99 | 1016.2 |
| 20260502035442 | 2 | 89 | 0.0 | 0.0 | 0.00 | 0.00 | 0.10 | 99 | 1016.2 |
| 20260502034810 | 2 | 20 | 3.2 | 3.2 | 0.00 | 0.00 | 0.10 | 99 | 1016.2 |
| 20260502034246 | 2 | 112 | 0.0 | 0.0 | 0.00 | 0.00 | 0.10 | 99 | 1015.9 |
| 20260502033649 | 2 | 76 | 0.0 | 0.0 | 0.00 | 0.00 | 0.10 | 99 | 1016.2 |
| 20260502033012 | 2 | 117 | 0.0 | 0.0 | 0.00 | 0.00 | 0.10 | 99 | 1016.2 |
| 20260502032426 | 2 | 116 | 0.0 | 0.0 | 0.00 | 0.00 | 0.10 | 99 | 1016.2 |
| 20260502031841 | 2 | 94 | 0.0 | 0.0 | 0.00 | 0.00 | 0.10 | 98 | 1016.2 |
| 20260502031213 | 2 | 83 | 0.0 | 0.0 | 0.00 | 0.00 | 0.10 | 98 | 1016.2 |
| 20260502030616 | 3 | 92 | 0.0 | 0.0 | 0.00 | 0.00 | 0.10 | 98 | 1016.2 |
| 20260502030046 | 3 | 86 | 0.0 | 0.0 | 0.00 | 0.00 | 0.10 | 98 | 1016.2 |
| 20260502025414 | 3 | 95 | 0.0 | 0.0 | 0.00 | 0.00 | 0.10 | 98 | 1015.9 |
| 20260502024827 | 3 | 107 | 0.0 | 0.0 | 0.00 | 0.00 | 0.10 | 98 | 1016.2 |
| 20260502024219 | 3 | 113 | 0.0 | 0.0 | 0.00 | 0.00 | 0.10 | 98 | 1016.2 |
| 20260502023624 | 3 | 95 | 0.0 | 0.0 | 0.00 | 0.00 | 0.10 | 97 | 1016.2 |
| 20260502023047 | 3 | 70 | 0.0 | 0.0 | 0.00 | 0.00 | 0.10 | 97 | 1016.2 |
| 20260502022427 | 3 | 88 | 0.0 | 0.0 | 0.00 | 0.00 | 0.10 | 97 | 1015.9 |
| 20260502021812 | 3 | 92 | 0.0 | 0.0 | 0.00 | 0.00 | 0.10 | 97 | 1015.9 |
| 20260502021234 | 3 | 89 | 0.0 | 0.0 | 0.00 | 0.00 | 0.10 | 96 | 1015.9 |
| 20260502020614 | 3 | 96 | 0.0 | 0.0 | 0.00 | 0.00 | 0.10 | 96 | 1015.2 |
| 20260502020036 | 3 | 116 | 0.0 | 0.0 | 0.00 | 0.00 | 0.10 | 96 | 1015.5 |
| 20260502015431 | 3 | 123 | 0.0 | 0.0 | 0.00 | 0.00 | 0.10 | 95 | 1015.5 |
| 20260502014842 | 4 | 124 | 0.0 | 0.0 | 0.00 | 0.00 | 0.10 | 95 | 1015.2 |
| 20260502014227 | 4 | 101 | 0.0 | 0.0 | 0.00 | 0.00 | 0.10 | 95 | 1015.2 |
| 20260502013620 | 4 | 63 | 0.0 | 0.0 | 0.00 | 0.00 | 0.10 | 94 | 1015.5 |
| 20260502013036 | 4 | 87 | 0.0 | 0.0 | 0.00 | 0.00 | 0.10 | 94 | 1015.5 |
| 20260502012450 | 5 | 95 | 0.0 | 0.0 | 0.00 | 0.00 | 0.10 | 94 | 1015.5 |
| 20260502011841 | 5 | 95 | 0.0 | 0.0 | 0.00 | 0.00 | 0.10 | 93 | 1015.5 |
| 20260502011224 | 5 | 95 | 0.0 | 0.0 | 0.00 | 0.00 | 0.10 | 92 | 1015.2 |
| 20260502010625 | 5 | 79 | 0.0 | 0.0 | 0.00 | 0.00 | 0.10 | 92 | 1014.9 |
| 20260502010053 | 6 | 88 | 0.0 | 0.0 | 0.00 | 0.00 | 0.10 | 90 | 1014.5 |
| 20260502005446 | 6 | 112 | 0.0 | 0.0 | 0.00 | 0.00 | 0.10 | 85 | 1014.5 |
| 20260502004843 | 7 | 105 | 0.0 | 0.0 | 0.00 | 0.00 | 0.10 | 86 | 1014.5 |
| 20260502004227 | 7 | 118 | 0.0 | 0.0 | 0.00 | 0.00 | 0.10 | 75 | 1014.5 |
| 20260502003649 | 7 | 97 | 0.0 | 0.0 | 0.00 | 0.00 | 0.10 | 72 | 1014.2 |
| 20260502002449 | 8 | 119 | 0.0 | 0.0 | 0.00 | 0.00 | 0.10 | 69 | 1014.2 |
| 20260502001832 | 8 | 283 | 3.2 | 3.2 | 0.00 | 0.00 | 0.10 | 68 | 1014.5 |
| 20260502001246 | 8 | 296 | 6.4 | 6.4 | 0.00 | 0.00 | 0.10 | 66 | 1014.5 |
| 20260502000031 | 10 | 88 | 0.0 | 0.0 | 0.00 | 0.00 | 0.10 | 66 | 1014.2 |
| 20260501235453 | 10 | 138 | 1.6 | 1.6 | 0.00 | 0.00 | 0.10 | 65 | 1014.2 |
| 20260501234840 | 10 | 65 | 1.6 | 1.6 | 0.00 | 0.00 | 0.10 | 66 | 1013.8 |
| 20260501234253 | 10 | 209 | 1.6 | 1.6 | 0.00 | 0.00 | 0.10 | 67 | 1013.8 |
| 20260501233644 | 10 | 28 | 3.2 | 4.8 | 0.00 | 0.00 | 0.10 | 64 | 1013.8 |
| 20260501233024 | 10 | 71 | 0.0 | 0.0 | 0.00 | 0.00 | 0.10 | 64 | 1013.8 |
| 20260501232442 | 10 | 286 | 4.8 | 6.4 | 0.00 | 0.00 | 0.10 | 65 | 1013.5 |
| 20260501231817 | 10 | 74 | 0.0 | 1.6 | 0.00 | 0.00 | 0.10 | 68 | 1013.8 |
| 20260501231255 | 10 | 22 | 3.2 | 3.2 | 0.00 | 0.00 | 0.10 | 66 | 1013.8 |
| 20260501230650 | 10 | 265 | 3.2 | 3.2 | 0.00 | 0.00 | 0.10 | 63 | 1013.8 |
| 20260501230036 | 10 | 222 | 1.6 | 1.6 | 0.00 | 0.00 | 0.10 | 65 | 1013.8 |
| 20260501225415 | 10 | 14 | 3.2 | 4.8 | 0.00 | 0.00 | 0.10 | 64 | 1013.8 |
| 20260501224827 | 10 | 227 | 6.4 | 6.4 | 0.00 | 0.00 | 0.10 | 65 | 1013.8 |
| 20260501224233 | 10 | 348 | 3.2 | 3.2 | 0.00 | 0.00 | 0.10 | 66 | 1013.5 |
| 20260501223617 | 10 | 249 | 6.4 | 9.7 | 0.00 | 0.00 | 0.10 | 69 | 1013.5 |
| 20260501223053 | 10 | 18 | 11.3 | 12.9 | 0.00 | 0.00 | 0.10 | 65 | 1013.5 |
| 20260501222451 | 11 | 274 | 8.0 | 11.3 | 0.00 | 0.00 | 0.10 | 61 | 1013.5 |
| 20260501221839 | 11 | 23 | 6.4 | 6.4 | 0.00 | 0.00 | 0.10 | 63 | 1013.2 |
| 20260501221246 | 10 | 318 | 8.0 | 11.3 | 0.00 | 0.00 | 0.10 | 62 | 1013.5 |
| 20260501220645 | 10 | 38 | 9.7 | 17.7 | 0.00 | 0.00 | 0.10 | 67 | 1013.2 |
| 20260501220021 | 10 | 159 | 4.8 | 6.4 | 0.00 | 0.00 | 0.10 | 66 | 1013.2 |
| 20260501215415 | 10 | 261 | 6.4 | 11.3 | 0.00 | 0.00 | 0.10 | 65 | 1013.5 |
| 20260501214238 | 10 | 20 | 3.2 | 4.8 | 0.00 | 0.00 | 0.10 | 65 | 1013.2 |
| 20260501213041 | 10 | 286 | 14.5 | 17.7 | 0.00 | 0.00 | 0.10 | 67 | 1013.2 |
| 20260501211829 | 10 | 207 | 8.0 | 11.3 | 0.00 | 0.00 | 0.10 | 65 | 1012.5 |
| 20260501211210 | 11 | 292 | 9.7 | 12.9 | 0.00 | 0.00 | 0.10 | 64 | 1012.5 |
| 20260501210617 | 12 | 330 | 9.7 | 12.9 | 0.00 | 0.00 | 0.10 | 63 | 1012.1 |
| 20260501210030 | 11 | 26 | 11.3 | 12.9 | 0.00 | 0.00 | 0.10 | 64 | 1012.1 |
| 20260501205421 | 11 | 290 | 4.8 | 4.8 | 0.00 | 0.00 | 0.10 | 67 | 1012.1 |
| 20260501204849 | 11 | 75 | 3.2 | 3.2 | 0.00 | 0.00 | 0.10 | 65 | 1011.8 |
| 20260501203622 | 11 | 330 | 11.3 | 14.5 | 0.00 | 0.00 | 0.10 | 69 | 1011.8 |
| 20260501202444 | 11 | 37 | 3.2 | 4.8 | 0.00 | 0.00 | 0.10 | 76 | 1011.8 |
| 20260501201809 | 11 | 282 | 6.4 | 9.7 | 0.00 | 0.00 | 0.10 | 73 | 1011.8 |
| 20260501201239 | 12 | 266 | 4.8 | 6.4 | 0.00 | 0.00 | 0.10 | 73 | 1011.8 |
| 20260501200048 | 11 | 171 | 1.6 | 3.2 | 0.00 | 0.00 | 0.10 | 79 | 1011.8 |
| 20260501194853 | 10 | 2 | 6.4 | 9.7 | 0.00 | 0.00 | 0.10 | 76 | 1011.8 |